Year,Month,Day,Hour,Minute,Value (Times are PST for windgust in km/hr)
2011,07,06,00,08,1.60
2011,07,06,00,09,1.60
2011,07,06,00,10,1.60
2011,07,06,00,12,1.60
2011,07,06,00,14,1.60
2011,07,06,00,15,1.60
2011,07,06,00,16,3.20
2011,07,06,00,17,1.60
2011,07,06,00,18,3.20
2011,07,06,00,21,1.60
2011,07,06,00,22,1.60
2011,07,06,00,23,1.60
2011,07,06,00,27,1.60
2011,07,06,00,29,1.60
2011,07,06,00,30,1.60
2011,07,06,00,31,1.60
2011,07,06,00,32,1.60
2011,07,06,00,39,1.60
2011,07,06,01,15,1.60
2011,07,06,01,25,1.60
2011,07,06,01,28,1.60
2011,07,06,01,29,1.60
2011,07,06,01,36,1.60
2011,07,06,01,37,1.60
2011,07,06,01,50,1.60
2011,07,06,01,51,1.60
2011,07,06,01,52,1.60
2011,07,06,01,53,1.60
2011,07,06,01,56,1.60
2011,07,06,02,22,1.60
2011,07,06,02,23,1.60
2011,07,06,02,24,1.60
2011,07,06,03,11,1.60
2011,07,06,03,12,3.20
2011,07,06,03,13,1.60
2011,07,06,03,17,1.60
2011,07,06,03,19,1.60
2011,07,06,03,20,3.20
2011,07,06,03,21,1.60
2011,07,06,03,22,1.60
2011,07,06,03,23,1.60
2011,07,06,03,24,1.60
2011,07,06,07,02,1.60
2011,07,06,07,07,1.60
2011,07,06,07,10,1.60
2011,07,06,07,11,1.60
2011,07,06,07,12,1.60
2011,07,06,07,13,1.60
2011,07,06,07,16,1.60
2011,07,06,07,17,4.80
2011,07,06,07,18,4.80
2011,07,06,07,19,4.80
2011,07,06,07,20,6.40
2011,07,06,07,21,4.80
2011,07,06,07,22,1.60
2011,07,06,07,23,4.80
2011,07,06,07,24,6.40
2011,07,06,07,25,3.20
2011,07,06,07,26,6.40
2011,07,06,07,27,4.80
2011,07,06,07,28,3.20
2011,07,06,07,29,6.40
2011,07,06,07,30,3.20
2011,07,06,07,31,3.20
2011,07,06,07,32,3.20
2011,07,06,07,33,4.80
2011,07,06,07,34,4.80
2011,07,06,07,35,3.20
2011,07,06,07,36,1.60
2011,07,06,07,37,3.20
2011,07,06,07,38,3.20
2011,07,06,07,39,3.20
2011,07,06,07,40,3.20
2011,07,06,07,41,3.20
2011,07,06,07,42,4.80
2011,07,06,07,43,3.20
2011,07,06,07,44,3.20
2011,07,06,07,45,3.20
2011,07,06,07,46,3.20
2011,07,06,07,47,3.20
2011,07,06,07,48,4.80
2011,07,06,07,49,3.20
2011,07,06,07,50,4.80
2011,07,06,07,51,3.20
2011,07,06,07,52,3.20
2011,07,06,07,53,3.20
2011,07,06,07,54,3.20
2011,07,06,07,55,4.80
2011,07,06,07,56,4.80
2011,07,06,07,57,4.80
2011,07,06,07,58,6.40
2011,07,06,07,59,6.40
2011,07,06,08,00,4.80
2011,07,06,08,01,3.20
2011,07,06,08,02,1.60
2011,07,06,08,03,6.40
2011,07,06,08,04,4.80
2011,07,06,08,05,4.80
2011,07,06,08,06,6.40
2011,07,06,08,07,4.80
2011,07,06,08,08,4.80
2011,07,06,08,09,3.20
2011,07,06,08,10,3.20
2011,07,06,08,11,4.80
2011,07,06,08,12,3.20
2011,07,06,08,13,1.60
2011,07,06,08,14,4.80
2011,07,06,08,15,4.80
2011,07,06,08,16,1.60
2011,07,06,08,17,3.20
2011,07,06,08,18,3.20
2011,07,06,08,19,4.80
2011,07,06,08,20,3.20
2011,07,06,08,21,1.60
2011,07,06,08,22,3.20
2011,07,06,08,23,1.60
2011,07,06,08,24,1.60
2011,07,06,08,25,3.20
2011,07,06,08,26,4.80
2011,07,06,08,27,3.20
2011,07,06,08,28,1.60
2011,07,06,08,29,3.20
2011,07,06,08,30,3.20
2011,07,06,08,32,1.60
2011,07,06,08,34,1.60
2011,07,06,08,35,1.60
2011,07,06,08,39,1.60
2011,07,06,08,40,1.60
2011,07,06,08,42,1.60
2011,07,06,08,45,3.20
2011,07,06,08,46,3.20
2011,07,06,08,47,1.60
2011,07,06,08,48,4.80
2011,07,06,08,49,6.40
2011,07,06,08,50,6.40
2011,07,06,08,51,6.40
2011,07,06,08,52,4.80
2011,07,06,08,53,3.20
2011,07,06,08,54,1.60
2011,07,06,08,55,1.60
2011,07,06,08,56,1.60
2011,07,06,08,57,1.60
2011,07,06,08,58,3.20
2011,07,06,08,59,3.20
2011,07,06,09,00,3.20
2011,07,06,09,01,1.60
2011,07,06,09,02,3.20
2011,07,06,09,03,1.60
2011,07,06,09,07,1.60
2011,07,06,09,10,3.20
2011,07,06,09,11,6.40
2011,07,06,09,12,4.80
2011,07,06,09,13,4.80
2011,07,06,09,14,3.20
2011,07,06,09,15,8.10
2011,07,06,09,16,6.40
2011,07,06,09,17,4.80
2011,07,06,09,18,4.80
2011,07,06,09,19,1.60
2011,07,06,09,20,1.60
2011,07,06,09,21,1.60
2011,07,06,09,22,1.60
2011,07,06,09,23,4.80
2011,07,06,09,24,3.20
2011,07,06,09,25,6.40
2011,07,06,09,26,4.80
2011,07,06,09,27,1.60
2011,07,06,09,28,4.80
2011,07,06,09,29,8.10
2011,07,06,09,30,6.40
2011,07,06,09,31,4.80
2011,07,06,09,32,4.80
2011,07,06,09,33,1.60
2011,07,06,09,34,1.60
2011,07,06,09,35,6.40
2011,07,06,09,36,4.80
2011,07,06,09,37,4.80
2011,07,06,09,38,3.20
2011,07,06,09,39,1.60
2011,07,06,09,40,1.60
2011,07,06,09,41,3.20
2011,07,06,09,42,1.60
2011,07,06,09,43,4.80
2011,07,06,09,44,8.10
2011,07,06,09,45,6.40
2011,07,06,09,46,4.80
2011,07,06,09,47,3.20
2011,07,06,09,48,1.60
2011,07,06,09,49,3.20
2011,07,06,09,50,3.20
2011,07,06,09,51,1.60
2011,07,06,09,52,3.20
2011,07,06,09,53,4.80
2011,07,06,09,54,4.80
2011,07,06,09,55,3.20
2011,07,06,09,56,6.40
2011,07,06,09,57,6.40
2011,07,06,09,58,6.40
2011,07,06,09,59,8.10
2011,07,06,10,00,6.40
2011,07,06,10,01,8.10
2011,07,06,10,02,4.80
2011,07,06,10,03,3.20
2011,07,06,10,04,1.60
2011,07,06,10,05,4.80
2011,07,06,10,06,11.30
2011,07,06,10,07,4.80
2011,07,06,10,08,6.40
2011,07,06,10,09,11.30
2011,07,06,10,10,6.40
2011,07,06,10,11,3.20
2011,07,06,10,12,1.60
2011,07,06,10,13,8.10
2011,07,06,10,14,6.40
2011,07,06,10,15,6.40
2011,07,06,10,16,6.40
2011,07,06,10,17,4.80
2011,07,06,10,18,6.40
2011,07,06,10,19,6.40
2011,07,06,10,20,6.40
2011,07,06,10,21,6.40
2011,07,06,10,22,4.80
2011,07,06,10,23,3.20
2011,07,06,10,24,4.80
2011,07,06,10,25,6.40
2011,07,06,10,26,3.20
2011,07,06,10,28,3.20
2011,07,06,10,29,4.80
2011,07,06,10,30,1.60
2011,07,06,10,31,3.20
2011,07,06,10,32,9.60
2011,07,06,10,33,6.40
2011,07,06,10,34,3.20
2011,07,06,10,35,6.40
2011,07,06,10,36,4.80
2011,07,06,10,37,9.60
2011,07,06,10,38,8.10
2011,07,06,10,39,4.80
2011,07,06,10,40,6.40
2011,07,06,10,41,11.30
2011,07,06,10,42,11.30
2011,07,06,10,43,16.10
2011,07,06,10,44,11.30
2011,07,06,10,45,11.30
2011,07,06,10,46,9.60
2011,07,06,10,47,3.20
2011,07,06,10,48,1.60
2011,07,06,10,49,6.40
2011,07,06,10,50,8.10
2011,07,06,10,51,11.30
2011,07,06,10,52,9.60
2011,07,06,10,53,9.60
2011,07,06,10,54,3.20
2011,07,06,10,55,11.30
2011,07,06,10,56,8.10
2011,07,06,10,57,8.10
2011,07,06,10,58,9.60
2011,07,06,10,59,9.60
2011,07,06,11,00,11.30
2011,07,06,11,01,8.10
2011,07,06,11,02,11.30
2011,07,06,11,03,16.10
2011,07,06,11,04,12.90
2011,07,06,11,05,9.60
2011,07,06,11,06,8.10
2011,07,06,11,07,16.10
2011,07,06,11,08,12.90
2011,07,06,11,09,11.30
2011,07,06,11,10,11.30
2011,07,06,11,11,6.40
2011,07,06,11,12,14.50
2011,07,06,11,13,17.70
2011,07,06,11,14,14.50
2011,07,06,11,15,8.10
2011,07,06,11,16,6.40
2011,07,06,11,17,14.50
2011,07,06,11,18,11.30
2011,07,06,11,19,6.40
2011,07,06,11,20,14.50
2011,07,06,11,21,16.10
2011,07,06,11,22,14.50
2011,07,06,11,23,16.10
2011,07,06,11,24,11.30
2011,07,06,11,25,16.10
2011,07,06,11,26,11.30
2011,07,06,11,27,8.10
2011,07,06,11,28,14.50
2011,07,06,11,29,11.30
2011,07,06,11,30,16.10
2011,07,06,11,31,16.10
2011,07,06,11,32,12.90
2011,07,06,11,33,8.10
2011,07,06,11,34,11.30
2011,07,06,11,35,9.60
2011,07,06,11,36,6.40
2011,07,06,11,37,4.80
2011,07,06,11,38,3.20
2011,07,06,11,39,6.40
2011,07,06,11,40,9.60
2011,07,06,11,41,11.30
2011,07,06,11,42,9.60
2011,07,06,11,43,16.10
2011,07,06,11,44,16.10
2011,07,06,11,45,14.50
2011,07,06,11,46,6.40
2011,07,06,11,47,11.30
2011,07,06,11,48,17.70
2011,07,06,11,49,14.50
2011,07,06,11,50,9.60
2011,07,06,11,51,8.10
2011,07,06,11,52,14.50
2011,07,06,11,53,16.10
2011,07,06,11,54,16.10
2011,07,06,11,55,16.10
2011,07,06,11,56,9.60
2011,07,06,11,57,9.60
2011,07,06,11,58,9.60
2011,07,06,11,59,6.40
2011,07,06,12,00,17.70
2011,07,06,12,01,9.60
2011,07,06,12,02,14.50
2011,07,06,12,03,11.30
2011,07,06,12,04,11.30
2011,07,06,12,05,9.60
2011,07,06,12,06,6.40
2011,07,06,12,07,11.30
2011,07,06,12,08,11.30
2011,07,06,12,09,14.50
2011,07,06,12,10,14.50
2011,07,06,12,11,19.30
2011,07,06,12,12,19.30
2011,07,06,12,13,9.60
2011,07,06,12,14,11.30
2011,07,06,12,15,8.10
2011,07,06,12,16,16.10
2011,07,06,12,17,14.50
2011,07,06,12,18,8.10
2011,07,06,12,19,11.30
2011,07,06,12,20,8.10
2011,07,06,12,21,12.90
2011,07,06,12,22,17.70
2011,07,06,12,23,16.10
2011,07,06,12,24,16.10
2011,07,06,12,25,6.40
2011,07,06,12,26,9.60
2011,07,06,12,27,9.60
2011,07,06,12,28,17.70
2011,07,06,12,29,17.70
2011,07,06,12,30,6.40
2011,07,06,12,31,14.50
2011,07,06,12,32,11.30
2011,07,06,12,33,11.30
2011,07,06,12,34,17.70
2011,07,06,12,35,16.10
2011,07,06,12,36,12.90
2011,07,06,12,37,9.60
2011,07,06,12,38,11.30
2011,07,06,12,39,16.10
2011,07,06,12,40,14.50
2011,07,06,12,41,8.10
2011,07,06,12,42,12.90
2011,07,06,12,43,11.30
2011,07,06,12,44,11.30
2011,07,06,12,45,14.50
2011,07,06,12,46,9.60
2011,07,06,12,47,16.10
2011,07,06,12,48,9.60
2011,07,06,12,49,8.10
2011,07,06,12,50,8.10
2011,07,06,12,51,11.30
2011,07,06,12,52,14.50
2011,07,06,12,53,12.90
2011,07,06,12,54,11.30
2011,07,06,12,55,8.10
2011,07,06,12,56,11.30
2011,07,06,12,57,9.60
2011,07,06,12,58,6.40
2011,07,06,12,59,9.60
2011,07,06,13,00,8.10
2011,07,06,13,01,14.50
2011,07,06,13,02,4.80
2011,07,06,13,03,6.40
2011,07,06,13,04,12.90
2011,07,06,13,05,11.30
2011,07,06,13,06,11.30
2011,07,06,13,07,11.30
2011,07,06,13,08,16.10
2011,07,06,13,09,9.60
2011,07,06,13,10,9.60
2011,07,06,13,11,8.10
2011,07,06,13,12,8.10
2011,07,06,13,13,11.30
2011,07,06,13,14,9.60
2011,07,06,13,15,19.30
2011,07,06,13,16,16.10
2011,07,06,13,17,11.30
2011,07,06,13,18,12.90
2011,07,06,13,19,11.30
2011,07,06,13,20,3.20
2011,07,06,13,21,8.10
2011,07,06,13,22,11.30
2011,07,06,13,23,8.10
2011,07,06,13,24,1.60
2011,07,06,13,25,3.20
2011,07,06,13,26,4.80
2011,07,06,13,27,17.70
2011,07,06,13,28,16.10
2011,07,06,13,29,11.30
2011,07,06,13,30,11.30
2011,07,06,13,31,8.10
2011,07,06,13,32,16.10
2011,07,06,13,33,11.30
2011,07,06,13,34,16.10
2011,07,06,13,35,14.50
2011,07,06,13,36,6.40
2011,07,06,13,37,11.30
2011,07,06,13,38,14.50
2011,07,06,13,39,8.10
2011,07,06,13,40,12.90
2011,07,06,13,41,14.50
2011,07,06,13,42,11.30
2011,07,06,13,43,8.10
2011,07,06,13,44,1.60
2011,07,06,13,45,1.60
2011,07,06,13,46,8.10
2011,07,06,13,47,8.10
2011,07,06,13,48,9.60
2011,07,06,13,49,11.30
2011,07,06,13,50,9.60
2011,07,06,13,51,11.30
2011,07,06,13,52,8.10
2011,07,06,13,53,8.10
2011,07,06,13,54,14.50
2011,07,06,13,55,9.60
2011,07,06,13,56,14.50
2011,07,06,13,57,12.90
2011,07,06,13,58,9.60
2011,07,06,13,59,6.40
2011,07,06,14,00,8.10
2011,07,06,14,01,6.40
2011,07,06,14,02,9.60
2011,07,06,14,03,6.40
2011,07,06,14,04,9.60
2011,07,06,14,05,8.10
2011,07,06,14,06,8.10
2011,07,06,14,07,4.80
2011,07,06,14,08,12.90
2011,07,06,14,09,14.50
2011,07,06,14,10,9.60
2011,07,06,14,11,8.10
2011,07,06,14,12,16.10
2011,07,06,14,13,9.60
2011,07,06,14,14,9.60
2011,07,06,14,15,12.90
2011,07,06,14,16,16.10
2011,07,06,14,17,11.30
2011,07,06,14,18,11.30
2011,07,06,14,19,14.50
2011,07,06,14,20,16.10
2011,07,06,14,21,17.70
2011,07,06,14,22,12.90
2011,07,06,14,23,8.10
2011,07,06,14,24,16.10
2011,07,06,14,25,11.30
2011,07,06,14,26,11.30
2011,07,06,14,27,8.10
2011,07,06,14,28,9.60
2011,07,06,14,29,11.30
2011,07,06,14,30,9.60
2011,07,06,14,31,16.10
2011,07,06,14,32,14.50
2011,07,06,14,33,9.60
2011,07,06,14,34,14.50
2011,07,06,14,35,14.50
2011,07,06,14,36,11.30
2011,07,06,14,37,12.90
2011,07,06,14,38,11.30
2011,07,06,14,39,16.10
2011,07,06,14,40,9.60
2011,07,06,14,41,11.30
2011,07,06,14,42,14.50
2011,07,06,14,43,8.10
2011,07,06,14,44,12.90
2011,07,06,14,45,9.60
2011,07,06,14,46,9.60
2011,07,06,14,47,8.10
2011,07,06,14,48,14.50
2011,07,06,14,49,9.60
2011,07,06,14,50,14.50
2011,07,06,14,51,16.10
2011,07,06,14,52,8.10
2011,07,06,14,53,11.30
2011,07,06,14,54,11.30
2011,07,06,14,55,17.70
2011,07,06,14,56,12.90
2011,07,06,14,57,9.60
2011,07,06,14,58,6.40
2011,07,06,14,59,11.30
2011,07,06,15,00,11.30
2011,07,06,15,01,16.10
2011,07,06,15,02,17.70
2011,07,06,15,03,14.50
2011,07,06,15,04,17.70
2011,07,06,15,05,12.90
2011,07,06,15,06,16.10
2011,07,06,15,07,11.30
2011,07,06,15,08,11.30
2011,07,06,15,09,14.50
2011,07,06,15,10,14.50
2011,07,06,15,11,11.30
2011,07,06,15,12,11.30
2011,07,06,15,13,6.40
2011,07,06,15,14,6.40
2011,07,06,15,15,9.60
2011,07,06,15,16,11.30
2011,07,06,15,17,16.10
2011,07,06,15,18,8.10
2011,07,06,15,19,11.30
2011,07,06,15,20,9.60
2011,07,06,15,21,6.40
2011,07,06,15,22,4.80
2011,07,06,15,23,8.10
2011,07,06,15,24,6.40
2011,07,06,15,25,6.40
2011,07,06,15,26,6.40
2011,07,06,15,27,16.10
2011,07,06,15,28,16.10
2011,07,06,15,29,11.30
2011,07,06,15,30,16.10
2011,07,06,15,31,17.70
2011,07,06,15,32,12.90
2011,07,06,15,33,16.10
2011,07,06,15,34,11.30
2011,07,06,15,35,16.10
2011,07,06,15,36,17.70
2011,07,06,15,37,17.70
2011,07,06,15,38,16.10
2011,07,06,15,39,17.70
2011,07,06,15,40,12.90
2011,07,06,15,41,11.30
2011,07,06,15,42,11.30
2011,07,06,15,43,11.30
2011,07,06,15,44,11.30
2011,07,06,15,45,11.30
2011,07,06,15,46,16.10
2011,07,06,15,47,9.60
2011,07,06,15,48,9.60
2011,07,06,15,49,14.50
2011,07,06,15,50,17.70
2011,07,06,15,51,14.50
2011,07,06,15,52,11.30
2011,07,06,15,53,16.10
2011,07,06,15,54,16.10
2011,07,06,15,55,6.40
2011,07,06,15,56,9.60
2011,07,06,15,57,11.30
2011,07,06,15,58,14.50
2011,07,06,15,59,14.50
2011,07,06,16,00,9.60
2011,07,06,16,01,9.60
2011,07,06,16,02,11.30
2011,07,06,16,03,11.30
2011,07,06,16,04,8.10
2011,07,06,16,05,8.10
2011,07,06,16,06,8.10
2011,07,06,16,07,6.40
2011,07,06,16,08,3.20
2011,07,06,16,09,11.30
2011,07,06,16,10,14.50
2011,07,06,16,11,8.10
2011,07,06,16,12,6.40
2011,07,06,16,13,14.50
2011,07,06,16,14,11.30
2011,07,06,16,15,16.10
2011,07,06,16,16,19.30
2011,07,06,16,17,11.30
2011,07,06,16,18,9.60
2011,07,06,16,19,11.30
2011,07,06,16,20,11.30
2011,07,06,16,21,11.30
2011,07,06,16,22,11.30
2011,07,06,16,23,16.10
2011,07,06,16,24,12.90
2011,07,06,16,25,14.50
2011,07,06,16,26,14.50
2011,07,06,16,27,11.30
2011,07,06,16,28,8.10
2011,07,06,16,29,16.10
2011,07,06,16,30,14.50
2011,07,06,16,31,14.50
2011,07,06,16,32,17.70
2011,07,06,16,33,22.50
2011,07,06,16,34,19.30
2011,07,06,16,35,14.50
2011,07,06,16,36,14.50
2011,07,06,16,37,11.30
2011,07,06,16,38,16.10
2011,07,06,16,39,12.90
2011,07,06,16,40,11.30
2011,07,06,16,41,12.90
2011,07,06,16,42,11.30
2011,07,06,16,43,14.50
2011,07,06,16,44,12.90
2011,07,06,16,45,9.60
2011,07,06,16,46,16.10
2011,07,06,16,47,11.30
2011,07,06,16,48,20.90
2011,07,06,16,49,16.10
2011,07,06,16,50,19.30
2011,07,06,16,51,8.10
2011,07,06,16,52,14.50
2011,07,06,16,53,14.50
2011,07,06,16,54,12.90
2011,07,06,16,55,14.50
2011,07,06,16,56,17.70
2011,07,06,16,57,12.90
2011,07,06,16,58,9.60
2011,07,06,16,59,11.30
2011,07,06,17,00,17.70
2011,07,06,17,01,16.10
2011,07,06,17,02,12.90
2011,07,06,17,03,17.70
2011,07,06,17,04,20.90
2011,07,06,17,05,11.30
2011,07,06,17,06,9.60
2011,07,06,17,07,3.20
2011,07,06,17,08,8.10
2011,07,06,17,09,9.60
2011,07,06,17,10,9.60
2011,07,06,17,11,11.30
2011,07,06,17,12,9.60
2011,07,06,17,13,11.30
2011,07,06,17,14,14.50
2011,07,06,17,15,14.50
2011,07,06,17,16,9.60
2011,07,06,17,17,11.30
2011,07,06,17,18,11.30
2011,07,06,17,19,8.10
2011,07,06,17,20,11.30
2011,07,06,17,21,11.30
2011,07,06,17,22,6.40
2011,07,06,17,23,6.40
2011,07,06,17,24,6.40
2011,07,06,17,25,16.10
2011,07,06,17,26,12.90
2011,07,06,17,27,4.80
2011,07,06,17,28,9.60
2011,07,06,17,29,11.30
2011,07,06,17,30,6.40
2011,07,06,17,31,12.90
2011,07,06,17,32,19.30
2011,07,06,17,33,17.70
2011,07,06,17,34,16.10
2011,07,06,17,35,22.50
2011,07,06,17,36,19.30
2011,07,06,17,37,19.30
2011,07,06,17,38,20.90
2011,07,06,17,39,20.90
2011,07,06,17,40,19.30
2011,07,06,17,41,17.70
2011,07,06,17,42,16.10
2011,07,06,17,43,14.50
2011,07,06,17,44,11.30
2011,07,06,17,45,11.30
2011,07,06,17,46,11.30
2011,07,06,17,47,8.10
2011,07,06,17,48,14.50
2011,07,06,17,49,11.30
2011,07,06,17,50,8.10
2011,07,06,17,51,8.10
2011,07,06,17,52,6.40
2011,07,06,17,53,8.10
2011,07,06,17,54,8.10
2011,07,06,17,55,6.40
2011,07,06,17,56,11.30
2011,07,06,17,57,19.30
2011,07,06,17,58,19.30
2011,07,06,17,59,14.50
2011,07,06,18,00,17.70
2011,07,06,18,01,19.30
2011,07,06,18,02,16.10
2011,07,06,18,03,11.30
2011,07,06,18,04,14.50
2011,07,06,18,05,11.30
2011,07,06,18,06,16.10
2011,07,06,18,07,17.70
2011,07,06,18,08,17.70
2011,07,06,18,09,12.90
2011,07,06,18,10,16.10
2011,07,06,18,11,16.10
2011,07,06,18,12,11.30
2011,07,06,18,13,14.50
2011,07,06,18,14,16.10
2011,07,06,18,15,9.60
2011,07,06,18,16,9.60
2011,07,06,18,17,6.40
2011,07,06,18,18,6.40
2011,07,06,18,19,3.20
2011,07,06,18,20,9.60
2011,07,06,18,21,8.10
2011,07,06,18,22,4.80
2011,07,06,18,23,9.60
2011,07,06,18,24,9.60
2011,07,06,18,25,11.30
2011,07,06,18,26,17.70
2011,07,06,18,27,6.40
2011,07,06,18,28,11.30
2011,07,06,18,29,11.30
2011,07,06,18,30,8.10
2011,07,06,18,31,16.10
2011,07,06,18,32,14.50
2011,07,06,18,33,9.60
2011,07,06,18,34,9.60
2011,07,06,18,35,9.60
2011,07,06,18,36,11.30
2011,07,06,18,37,6.40
2011,07,06,18,38,11.30
2011,07,06,18,39,12.90
2011,07,06,18,40,16.10
2011,07,06,18,41,11.30
2011,07,06,18,42,8.10
2011,07,06,18,43,8.10
2011,07,06,18,44,8.10
2011,07,06,18,45,8.10
2011,07,06,18,46,12.90
2011,07,06,18,47,8.10
2011,07,06,18,48,11.30
2011,07,06,18,49,14.50
2011,07,06,18,50,8.10
2011,07,06,18,51,8.10
2011,07,06,18,52,12.90
2011,07,06,18,53,14.50
2011,07,06,18,54,14.50
2011,07,06,18,55,14.50
2011,07,06,18,56,16.10
2011,07,06,18,57,11.30
2011,07,06,18,58,16.10
2011,07,06,18,59,9.60
2011,07,06,19,00,11.30
2011,07,06,19,01,11.30
2011,07,06,19,02,11.30
2011,07,06,19,03,14.50
2011,07,06,19,04,11.30
2011,07,06,19,05,9.60
2011,07,06,19,06,16.10
2011,07,06,19,07,14.50
2011,07,06,19,08,9.60
2011,07,06,19,09,12.90
2011,07,06,19,10,6.40
2011,07,06,19,11,8.10
2011,07,06,19,12,9.60
2011,07,06,19,13,9.60
2011,07,06,19,14,8.10
2011,07,06,19,15,6.40
2011,07,06,19,16,11.30
2011,07,06,19,17,8.10
2011,07,06,19,18,8.10
2011,07,06,19,19,3.20
2011,07,06,19,20,6.40
2011,07,06,19,21,8.10
2011,07,06,19,22,12.90
2011,07,06,19,23,4.80
2011,07,06,19,24,4.80
2011,07,06,19,25,14.50
2011,07,06,19,26,11.30
2011,07,06,19,27,11.30
2011,07,06,19,28,9.60
2011,07,06,19,29,14.50
2011,07,06,19,30,9.60
2011,07,06,19,31,16.10
2011,07,06,19,32,6.40
2011,07,06,19,33,9.60
2011,07,06,19,34,11.30
2011,07,06,19,35,11.30
2011,07,06,19,36,11.30
2011,07,06,19,37,9.60
2011,07,06,19,38,11.30
2011,07,06,19,39,14.50
2011,07,06,19,40,6.40
2011,07,06,19,41,8.10
2011,07,06,19,42,11.30
2011,07,06,19,43,12.90
2011,07,06,19,44,11.30
2011,07,06,19,45,14.50
2011,07,06,19,46,17.70
2011,07,06,19,47,11.30
2011,07,06,19,48,14.50
2011,07,06,19,49,9.60
2011,07,06,19,50,11.30
2011,07,06,19,51,9.60
2011,07,06,19,52,16.10
2011,07,06,19,53,11.30
2011,07,06,19,54,17.70
2011,07,06,19,55,12.90
2011,07,06,19,56,9.60
2011,07,06,19,57,17.70
2011,07,06,19,58,11.30
2011,07,06,19,59,19.30
2011,07,06,20,00,17.70
2011,07,06,20,01,16.10
2011,07,06,20,02,12.90
2011,07,06,20,03,14.50
2011,07,06,20,04,8.10
2011,07,06,20,05,9.60
2011,07,06,20,06,9.60
2011,07,06,20,07,4.80
2011,07,06,20,08,6.40
2011,07,06,20,09,8.10
2011,07,06,20,10,12.90
2011,07,06,20,11,9.60
2011,07,06,20,12,6.40
2011,07,06,20,13,3.20
2011,07,06,20,14,8.10
2011,07,06,20,15,8.10
2011,07,06,20,16,6.40
2011,07,06,20,17,6.40
2011,07,06,20,18,9.60
2011,07,06,20,19,6.40
2011,07,06,20,20,6.40
2011,07,06,20,21,4.80
2011,07,06,20,22,4.80
2011,07,06,20,23,1.60
2011,07,06,20,24,3.20
2011,07,06,20,25,4.80
2011,07,06,20,26,3.20
2011,07,06,20,27,4.80
2011,07,06,20,28,11.30
2011,07,06,20,29,14.50
2011,07,06,20,30,6.40
2011,07,06,20,31,4.80
2011,07,06,20,32,3.20
2011,07,06,20,33,8.10
2011,07,06,20,34,9.60
2011,07,06,20,35,6.40
2011,07,06,20,36,6.40
2011,07,06,20,37,6.40
2011,07,06,20,38,4.80
2011,07,06,20,39,1.60
2011,07,06,20,40,4.80
2011,07,06,20,41,3.20
2011,07,06,20,42,3.20
2011,07,06,20,43,1.60
2011,07,06,20,44,1.60
2011,07,06,20,45,1.60
2011,07,06,20,46,3.20
2011,07,06,20,47,1.60
2011,07,06,20,48,3.20
2011,07,06,20,49,8.10
2011,07,06,20,50,1.60
2011,07,06,20,51,3.20
2011,07,06,20,52,3.20
2011,07,06,20,53,3.20
2011,07,06,20,54,1.60
2011,07,06,20,55,1.60
2011,07,06,20,56,8.10
2011,07,06,20,57,6.40
2011,07,06,20,58,3.20
2011,07,06,20,59,3.20
2011,07,06,21,00,1.60
2011,07,06,21,01,1.60
2011,07,06,21,03,1.60
2011,07,06,21,04,1.60
2011,07,06,21,05,4.80
2011,07,06,21,06,8.10
2011,07,06,21,07,1.60
2011,07,06,21,08,3.20
2011,07,06,21,09,3.20
2011,07,06,21,10,1.60
2011,07,06,21,11,3.20
2011,07,06,21,12,6.40
2011,07,06,21,13,3.20
2011,07,06,21,14,4.80
2011,07,06,21,15,1.60
2011,07,06,21,16,4.80
2011,07,06,21,17,6.40
2011,07,06,21,18,6.40
2011,07,06,21,19,6.40
2011,07,06,21,20,1.60
2011,07,06,21,21,4.80
2011,07,06,21,22,1.60
2011,07,06,21,25,3.20
2011,07,06,21,26,4.80
2011,07,06,21,27,1.60
2011,07,06,21,28,8.10
2011,07,06,21,29,6.40
2011,07,06,21,30,3.20
2011,07,06,21,31,1.60
2011,07,06,21,32,6.40
2011,07,06,21,33,4.80
2011,07,06,21,34,4.80
2011,07,06,21,35,1.60
2011,07,06,21,36,8.10
2011,07,06,21,37,9.60
2011,07,06,21,38,8.10
2011,07,06,21,39,6.40
2011,07,06,21,40,1.60
2011,07,06,21,41,3.20
2011,07,06,21,42,8.10
2011,07,06,21,43,8.10
2011,07,06,21,44,11.30
2011,07,06,21,45,11.30
2011,07,06,21,46,6.40
2011,07,06,21,47,4.80
2011,07,06,21,48,6.40
2011,07,06,21,49,8.10
2011,07,06,21,50,8.10
2011,07,06,21,51,9.60
2011,07,06,21,52,8.10
2011,07,06,21,53,1.60
2011,07,06,21,54,3.20
2011,07,06,21,55,3.20
2011,07,06,21,56,6.40
2011,07,06,21,57,6.40
2011,07,06,21,58,4.80
2011,07,06,21,59,8.10
2011,07,06,22,00,4.80
2011,07,06,22,01,6.40
2011,07,06,22,02,6.40
2011,07,06,22,03,4.80
2011,07,06,22,04,6.40
2011,07,06,22,05,3.20
2011,07,06,22,06,3.20
2011,07,06,22,07,4.80
2011,07,06,22,08,3.20
2011,07,06,22,09,8.10
2011,07,06,22,10,8.10
2011,07,06,22,11,8.10
2011,07,06,22,12,8.10
2011,07,06,22,13,4.80
2011,07,06,22,14,6.40
2011,07,06,22,15,8.10
2011,07,06,22,16,6.40
2011,07,06,22,17,6.40
2011,07,06,22,18,3.20
2011,07,06,22,19,3.20
2011,07,06,22,20,6.40
2011,07,06,22,21,4.80
2011,07,06,22,22,6.40
2011,07,06,22,23,8.10
2011,07,06,22,24,3.20
2011,07,06,22,25,1.60
2011,07,06,22,26,3.20
2011,07,06,22,27,1.60
2011,07,06,22,28,3.20
2011,07,06,22,29,4.80
2011,07,06,22,30,8.10
2011,07,06,22,31,4.80
2011,07,06,22,32,4.80
2011,07,06,22,33,4.80
2011,07,06,22,34,3.20
2011,07,06,22,35,1.60
2011,07,06,22,36,3.20
2011,07,06,22,37,1.60
2011,07,06,22,38,4.80
2011,07,06,22,39,9.60
2011,07,06,22,40,9.60
2011,07,06,22,41,6.40
2011,07,06,22,42,4.80
2011,07,06,22,43,8.10
2011,07,06,22,44,6.40
2011,07,06,22,45,11.30
2011,07,06,22,46,6.40
2011,07,06,22,47,8.10
2011,07,06,22,48,6.40
2011,07,06,22,49,6.40
2011,07,06,22,50,8.10
2011,07,06,22,51,8.10
2011,07,06,22,52,6.40
2011,07,06,22,53,4.80
2011,07,06,22,54,6.40
2011,07,06,22,55,6.40
2011,07,06,22,56,8.10
2011,07,06,22,57,6.40
2011,07,06,22,58,3.20
2011,07,06,22,59,1.60
2011,07,06,23,00,1.60
2011,07,06,23,01,3.20
2011,07,06,23,02,3.20
2011,07,06,23,05,1.60
2011,07,06,23,07,1.60
2011,07,06,23,09,3.20
2011,07,06,23,10,1.60
2011,07,06,23,11,1.60
2011,07,06,23,12,1.60
2011,07,06,23,13,1.60
2011,07,06,23,16,1.60
2011,07,06,23,21,1.60
2011,07,06,23,28,1.60
2011,07,06,23,29,1.60
2011,07,06,23,30,1.60
2011,07,06,23,35,1.60
2011,07,06,23,36,1.60
2011,07,06,23,37,1.60
2011,07,06,23,38,1.60
